Location: Newark
(13.6797°N, 8.5297°E)
Time: 21:37:54
(UTC+00:00)

Altair - Pass Details

Date: 04 February 2020
Orbit: 1502 x 1682 km, 47.2° (Epoch: 19 February)

Event Time Altitude Azimuth Distance (km) Brightness Sun altitude
Rises 01:24:34 0° 191° (S) 4,667 - -64.6°
Reaches altitude 10° 01:28:19 10° 178° (S) 3,708 - -63.7°
Maximum altitude 01:35:36 25° 126° (SE) 2,745 - -61.9°
Exits shadow 01:41:06 15° 84° (E) 3,388 9.5 -60.6°
Drops below altitude 10° 01:43:02 10° 75° (ENE) 3,821 9.8 -60.1°
Sets 01:46:54 0° 63° (ENE) 4,837 10.5 -59.2°
